Temp
18 18 18 19 19 19 20 20 21 21 22 22 22 23 22 22 21 18 17 26 28 27 27 26 26 26 26 25 25 22 23 24 27 26 28 26 26 27 27 26 27 27 23 23 21
18 18 18 19 19 20 20 21 21 21 22 22 23 23 22 20 18 16 26 27 28 27 26 26 24 24 23 26 24 24 22 26 27 28 27 26 27 26 26 26 26 24 23 22 20
18 18 19 19 20 20 21 21 22 22 23 24 24 23 22 20 19 27 28 27 27 27 27 27 26 26 27 26 26 24 25 26 29 29 27 26 27 28 25 25 25 24 22 21 20
18 18 18 19 20 20 21 22 23 23 24 24 24 23 22 19 27 28 28 28 27 27 26 26 25 25 25 27 26 28 27 27 29 28 27 27 26 27 26 26 26 24 23 22 21
17 18 19 19 20 21 21 22 23 23 24 24 24 23 21 22 24 27 28 27 27 27 26 25 26 25 27 27 27 28 29 29 28 28 27 27 27 27 26 26 25 24 23 22 21
17 18 18 19 20 21 22 23 24 24 24 24 24 23 20 25 27 27 27 27 27 26 26 25 26 25 27 27 28 27 28 28 27 26 28 27 27 28 26 25 25 24 22 22 22
17 17 18 19 20 21 22 23 23 24 24 23 23 21 20 23 27 27 27 27 27 27 25 27 28 28 26 28 28 29 30 28 26 27 27 28 28 27 26 25 25 25 24 23 22
16 17 18 19 20 21 22 23 24 24 23 22 21 20 21 27 27 27 27 27 27 27 28 29 28 27 27 28 26 29 26 27 28 29 27 29 28 28 24 25 25 25 25 24 23
16 17 17 18 19 21 23 23 24 23 22 21 20 20 23 26 26 28 27 28 27 27 28 28 28 25 26 26 26 24 27 28 29 29 27 28 28 27 25 25 25 25 25 25 24
16 17 17 18 19 20 23 24 22 22 21 19 19 21 25 26 27 28 28 27 28 28 27 27 22 23 22 24 25 28 27 27 29 30 28 28 27 26 25 26 26 25 25 25 24
16 16 17 18 19 20 22 22 16 17 19 21 21 22 23 27 27 28 27 27 28 26 26 25 24 24 26 27 27 27 27 27 27 30 28 27 28 26 26 26 25 25 25 25 24
15 16 17 18 19 19 20 16 17 17 14 18 19 20 24 26 25 27 28 27 27 25 26 23 24 26 27 27 27 27 27 27 27 27 28 27 27 27 26 26 26 25 26 26 25
15 15 16 18 19 19 17 18 17 16 15 20 21 22 24 24 24 25 27 26 27 26 25 24 27 27 28 27 27 26 26 27 28 27 26 24 26 25 26 26 26 26 26 26 26
15 15 16 17 18 16 17 18 18 16 17 21 24 25 24 24 26 26 28 28 27 25 23 25 26 27 27 26 25 26 26 28 28 27 26 27 25 25 24 25 25 27 25 26 25
14 14 15 15 14 14 19 19 19 18 20 26 26 26 24 26 27 27 27 27 26 25 25 26 27 27 27 27 26 27 26 26 27 25 26 26 24 26 24 25 25 26 27 26 26
14 13 13 14 14 18 18 19 19 18 20 24 27 27 26 27 28 26 28 27 25 26 26 25 26 28 27 28 27 29 28 23 21 21 23 26 25 25 24 25 27 27 28 28 27
13 14 13 14 15 18 17 16 18 18 23 25 25 25 26 27 28 28 26 26 24 25 25 25 26 27 28 28 28 27 23 23 24 23 24 24 24 25 27 24 28 29 28 28 27
13 14 16 17 16 15 17 16 19 21 22 24 24 24 25 25 27 26 25 25 25 23 21 23 24 26 28 28 28 27 25 22 25 23 25 25 24 27 26 27 24 27 29 28 26
13 15 15 17 15 13 13 16 18 19 23 23 23 23 23 24 26 24 24 23 24 23 24 23 25 25 27 28 28 27 25 26 23 22 23 23 25 26 27 26 24 24 25 25 26
12 12 13 15 14 14 14 15 18 19 22 23 23 24 24 24 24 23 23 24 23 24 24 23 24 25 26 27 27 26 25 26 21 25 24 23 25 25 27 27 24 23 23 23 23
12 10 15 15 15 12 14 14 18 20 22 22 23 23 24 25 24 24 22 25 23 22 23 23 22 24 26 26 26 24 23 23 21 20 23 23 22 23 24 26 23 23 21 21 20
10 12 14 15 13 10 13 16 19 21 22 22 22 22 23 24 25 24 23 23 22 22 23 22 19 22 24 25 25 25 25 23 21 24 20 20 22 24 22 23 22 21 19 19 19
9 8 15 15 14 13 15 19 20 21 21 22 22 23 24 24 24 23 22 23 21 21 23 22 20 20 22 23 23 25 24 23 20 19 21 22 23 23 22 23 22 20 19 19 19
8 12 11 12 12 16 17 18 19 21 20 21 21 22 23 23 22 23 23 22 21 21 19 19 17 20 21 23 22 24 24 26 22 20 22 21 23 24 24 22 21 19 18 18 18
8 11 12 13 14 16 17 18 19 19 20 20 21 20 22 22 22 22 22 22 22 19 19 18 20 19 20 20 21 22 24 24 25 23 24 24 23 23 22 21 21 19 19 19 19
9 10 10 11 12 15 15 18 19 19 19 21 21 21 20 21 21 21 22 22 23 20 19 16 19 18 20 22 22 23 23 24 24 25 24 24 24 21 21 20 20 20 20 20 19
9 9 10 12 12 14 15 17 18 18 19 20 21 21 21 21 21 21 19 18 20 21 18 18 17 18 20 19 20 22 24 23 24 24 24 23 23 20 20 21 20 20 20 20 19
Height
813 810 806 803 800 796 793 789 785 781 776 772 769 764 760 757 755 753 751 747 748 751 754 756 759 761 763 766 767 772 803 813 798 797 782 774 780 775 775 783 782 781 786 790 798
811 809 805 802 798 796 791 786 782 778 774 770 766 763 758 755 752 750 745 745 747 752 754 756 761 762 769 768 772 783 808 795 777 771 778 775 774 777 783 786 787 788 789 791 798
811 807 803 802 798 793 789 784 779 775 770 766 763 761 757 754 754 745 744 746 749 752 754 756 758 761 768 768 773 782 795 778 768 763 765 775 777 774 784 793 784 785 791 792 798
810 807 804 801 795 792 787 782 777 772 767 762 761 759 756 756 767 745 746 747 750 752 755 756 759 767 774 775 769 779 772 772 763 761 765 775 774 778 780 777 772 780 784 791 796
810 807 803 798 792 787 782 779 775 769 763 760 759 758 757 758 753 745 746 748 750 752 755 757 762 766 773 769 769 776 768 763 760 759 763 764 775 779 779 773 773 782 788 793 794
810 806 801 796 791 785 780 775 771 766 761 759 758 758 759 763 746 746 747 748 750 752 754 757 759 759 765 767 769 766 764 763 761 760 762 771 777 776 774 777 779 784 788 791 792
809 804 799 795 789 784 778 773 768 762 759 758 758 757 759 753 744 745 747 748 749 752 753 754 754 758 761 766 758 760 768 765 768 762 771 767 789 785 774 777 780 784 787 789 790
806 802 798 793 788 782 776 771 765 761 759 758 758 758 758 744 743 743 746 748 749 751 752 752 753 756 759 756 764 769 776 793 770 765 770 770 794 779 776 779 782 784 785 787 788
806 802 797 792 786 780 773 768 762 760 760 758 758 758 757 744 743 742 745 746 748 749 751 753 753 762 762 776 786 789 797 790 780 767 773 777 788 776 776 780 782 782 784 784 785
806 802 797 792 786 779 772 765 762 760 760 759 759 763 747 747 742 742 742 746 747 748 752 755 766 777 782 788 810 793 794 794 788 775 776 783 785 778 773 775 780 780 781 782 782
805 801 796 792 786 779 772 767 771 769 765 765 761 761 752 744 741 740 741 745 747 753 769 765 780 790 778 774 776 780 786 792 788 768 779 785 782 780 773 776 781 780 780 780 779
804 800 796 792 787 782 777 782 792 794 783 757 750 751 746 746 752 740 741 750 755 771 765 780 789 771 767 771 776 780 785 790 783 774 777 784 784 773 773 766 765 769 772 772 774
804 800 796 791 786 785 784 787 788 786 790 754 745 743 740 743 749 745 740 748 758 769 771 784 772 763 767 775 780 784 789 786 786 784 781 791 794 786 769 765 765 766 766 769 769
803 800 796 791 790 788 786 785 783 782 798 766 747 737 738 739 747 735 736 745 757 771 776 774 762 764 772 778 779 790 774 773 778 787 805 778 822 790 777 769 768 761 762 762 765
802 800 797 795 795 792 788 784 780 782 815 747 742 732 735 743 738 740 735 741 762 766 770 774 765 767 772 770 768 776 767 775 776 790 793 794 812 788 778 777 768 758 751 752 754
801 799 796 796 794 788 786 782 780 804 810 761 740 742 746 740 739 739 740 739 747 761 763 767 756 757 761 755 759 752 764 784 795 805 821 790 801 797 787 766 750 743 743 744 747
799 797 796 794 789 787 786 783 806 814 766 762 756 749 747 750 745 743 753 759 772 783 784 770 764 753 749 763 756 762 788 819 816 822 821 788 801 781 754 750 738 730 728 730 735
796 793 790 786 784 786 787 795 805 784 778 756 754 752 756 752 750 750 758 769 761 772 792 792 794 763 749 756 765 767 781 816 820 826 810 788 800 770 744 735 735 724 718 726 733
793 789 784 781 780 783 793 808 798 786 769 769 761 767 766 756 754 759 768 775 766 766 785 793 785 758 751 748 754 769 784 769 798 804 813 800 775 750 737 736 735 730 721 723 725
793 788 783 781 779 784 795 800 787 774 767 765 774 764 772 766 764 767 772 763 768 762 758 773 789 763 756 749 751 760 760 785 805 809 816 804 787 778 749 741 736 732 724 720 720
793 793 782 781 783 789 800 797 781 769 764 769 771 771 766 765 764 770 778 763 762 763 760 769 780 778 760 765 768 773 782 782 792 804 810 815 800 752 747 738 740 730 730 724 727
793 798 784 783 792 800 796 785 771 768 763 765 766 768 767 763 765 769 774 770 762 761 771 771 789 791 776 756 755 758 767 777 804 795 803 804 794 740 742 736 737 738 734 732 728
796 797 785 785 796 796 785 776 770 770 768 766 767 762 759 765 774 768 770 762 764 765 768 770 792 806 787 773 764 765 765 770 784 792 795 798 783 742 739 735 736 741 737 735 731
796 795 789 786 788 786 782 778 776 764 767 763 765 762 764 767 767 771 770 765 764 767 770 772 797 798 807 788 780 776 767 760 775 797 787 786 769 749 741 744 744 744 742 738 736
794 793 791 790 788 783 779 776 776 776 764 762 763 766 765 772 770 772 768 769 765 771 774 778 791 793 789 784 782 774 768 763 766 767 774 766 764 754 749 744 744 744 745 741 741
793 793 792 791 789 785 783 777 775 770 769 764 764 759 764 770 768 775 769 770 769 773 779 786 793 793 789 773 774 773 762 758 755 752 757 758 754 748 745 744 745 747 748 749 748
789 790 790 789 788 786 784 778 773 770 760 758 757 760 764 763 759 759 762 769 769 773 785 788 795 798 798 785 782 781 762 760 751 750 752 763 747 744 747 746 748 748 747 749 754
Wind_Speed
18 20 23 25 27 29 30 31 32 32 26 24 25 22 20 20 15 6 6 4 10 12 14 12 8 6 5 2 2 4 4 1 4 5 3 6 4 3 4 8 2 2 5 10 25
19 21 23 26 28 30 32 34 33 33 26 27 26 20 19 18 11 7 1 9 16 16 13 12 5 6 3 2 1 4 3 6 5 5 4 7 5 8 4 5 1 5 9 26 26
19 22 25 27 29 32 34 35 34 32 32 27 22 15 16 13 3 2 6 14 16 14 7 8 10 4 3 3 4 3 5 3 6 2 10 6 4 2 8 4 7 14 15 19 22
20 23 26 29 32 33 35 36 36 35 31 23 14 10 12 4 1 2 9 11 12 13 10 7 4 4 4 5 4 3 6 5 5 7 7 10 8 4 7 5 6 10 18 16 16
21 24 27 31 33 35 37 36 35 35 26 17 7 6 4 4 6 4 13 12 14 11 5 4 3 4 4 4 4 4 4 4 5 6 9 12 7 5 12 3 14 12 13 14 14
21 25 28 31 33 36 36 37 35 32 20 12 5 3 1 3 3 3 12 13 9 10 5 5 5 6 3 3 4 7 5 6 2 6 8 9 4 7 9 7 12 15 14 13 15
22 25 28 31 34 36 36 35 36 27 14 6 3 1 1 9 5 2 9 7 9 10 5 6 3 2 3 2 3 1 3 4 6 3 5 11 1 8 3 8 13 13 14 13 13
23 25 28 31 33 36 35 31 28 18 8 4 1 1 6 3 6 5 10 4 6 10 8 4 4 1 3 1 5 3 5 4 3 2 4 7 15 3 8 12 14 12 11 13 14
22 26 29 31 34 36 32 30 19 8 9 5 2 2 7 5 3 3 9 3 6 7 7 2 0 2 4 4 4 7 3 2 2 1 5 4 4 7 8 10 13 12 11 12 11
22 25 29 31 35 36 27 20 13 6 8 4 1 3 4 1 5 5 3 7 3 1 2 2 4 3 4 4 5 4 5 2 1 1 3 4 6 3 14 14 16 13 10 10 9
22 25 29 32 35 26 24 6 8 6 7 6 7 5 7 8 6 2 4 7 1 6 2 3 4 3 5 0 2 4 4 4 4 3 6 10 9 9 14 11 11 12 12 11 12
20 24 29 31 33 14 12 7 5 6 11 9 16 10 15 3 4 2 10 5 3 3 2 5 2 6 2 2 1 0 2 3 2 4 4 8 14 4 13 22 21 19 16 17 13
20 24 28 31 21 16 7 8 17 6 3 7 5 5 4 11 7 6 6 4 3 4 3 5 4 5 2 1 2 2 3 3 6 4 4 7 4 4 9 7 10 9 11 10 14
18 22 26 31 5 23 5 20 26 3 4 7 4 4 4 6 3 7 8 5 2 7 7 4 3 1 2 4 6 2 7 5 4 3 3 1 4 6 5 12 8 15 12 13 12
17 21 24 24 14 8 12 26 19 4 4 3 0 5 2 6 4 4 3 4 7 5 5 6 2 3 1 4 6 7 6 6 4 4 4 2 4 7 0 6 14 16 19 16 15
18 21 25 19 18 16 18 26 2 5 5 6 2 1 4 2 1 3 3 5 4 5 1 6 2 2 6 5 7 3 3 6 4 4 1 6 7 5 5 8 10 21 18 16 15
19 22 25 20 6 17 19 7 4 3 5 6 3 4 1 1 1 2 5 5 5 3 2 3 4 3 4 2 2 3 6 3 3 3 5 1 5 8 7 9 14 19 21 20 17
21 25 23 25 22 13 5 4 3 3 6 5 5 5 3 3 3 1 5 3 1 5 2 2 6 3 2 4 4 3 6 5 5 4 4 2 5 6 6 6 9 13 17 9 14
22 19 18 9 8 8 4 2 7 6 2 6 6 6 6 5 3 4 4 2 3 6 6 2 4 4 2 1 4 1 2 2 5 2 2 4 7 9 5 7 6 9 7 11 14
17 10 10 8 5 9 4 5 4 3 4 3 3 2 3 5 4 4 3 3 4 2 2 7 3 2 4 2 3 3 4 1 3 2 4 5 4 5 5 9 7 7 7 9 10
5 4 5 0 11 4 4 6 5 6 3 1 1 3 2 2 2 2 3 1 3 5 3 3 3 6 1 2 4 4 4 4 4 5 4 3 6 7 8 6 9 6 6 5 10
2 2 4 11 3 1 3 5 3 3 2 2 1 4 3 2 2 3 3 1 7 2 3 3 4 2 8 3 2 3 4 4 4 4 3 3 6 4 6 6 4 6 3 5 11
2 2 6 2 1 2 4 3 2 2 3 1 3 4 2 2 3 2 3 1 8 5 2 1 3 3 8 5 4 1 3 2 3 3 5 4 6 5 3 1 1 4 4 6 8
2 1 3 2 1 2 3 3 3 2 5 4 4 2 2 1 3 4 2 2 4 4 8 4 3 4 5 5 1 5 5 3 4 2 3 5 6 4 1 3 4 4 4 7 7
2 3 2 1 2 2 3 2 2 3 4 5 2 5 4 3 2 3 2 1 2 4 3 3 3 1 5 8 4 5 7 8 5 6 5 5 5 6 6 5 3 3 3 7 9
3 2 2 1 3 2 2 2 3 3 4 4 3 1 6 6 7 6 5 2 3 4 3 3 1 2 4 4 4 5 8 8 5 2 4 1 2 4 2 4 5 5 5 6 8
3 1 2 1 2 2 2 3 5 3 5 3 1 2 5 3 1 2 4 4 3 4 2 2 3 2 4 5 8 6 4 4 3 1 1 6 8 5 4 5 4 7 7 8 8
Wind_Direction
357 356 357 354 354 352 351 352 351 348 345 341 340 336 328 326 324 296 238 205 173 162 168 155 149 147 127 108 127 132 59 285 247 164 209 143 127 107 107 135 187 122 133 138 148
356 357 356 352 351 349 350 349 349 346 345 334 334 333 327 330 327 250 188 140 160 161 153 147 143 136 80 129 62 91 105 227 223 191 187 147 133 146 112 163 136 73 89 131 148
352 353 353 349 348 348 348 347 346 344 337 329 329 330 326 336 321 355 153 156 155 168 171 158 136 121 122 147 167 151 177 210 281 230 130 122 100 137 124 243 212 163 151 147 153
350 350 348 346 346 345 346 345 344 341 335 328 329 331 329 351 137 43 161 156 157 156 151 137 89 108 133 162 162 134 248 176 274 155 129 156 136 150 170 238 149 156 152 152 164
346 346 345 346 344 343 343 342 342 339 336 334 335 340 350 354 256 359 163 155 156 164 172 134 128 140 169 179 137 157 256 195 198 219 154 128 158 178 214 347 113 129 149 169 177
343 344 345 346 345 342 340 339 339 337 333 334 343 337 360 314 330 334 169 167 180 170 163 167 191 200 167 200 158 192 241 284 159 192 152 130 154 128 233 141 127 149 174 182 187
343 343 345 346 345 342 338 338 337 336 336 335 342 25 167 240 329 312 172 186 184 187 155 211 201 112 127 199 211 213 296 14 16 74 127 102 83 228 158 158 156 169 180 188 203
341 342 344 345 345 342 338 337 334 338 357 356 7 39 249 272 326 186 181 208 194 205 224 213 201 236 170 299 25 92 54 41 317 155 152 131 220 176 146 159 184 187 185 189 204
339 340 342 345 344 342 339 336 329 327 357 348 15 68 276 304 285 246 207 174 183 207 229 245 259 76 10 96 27 4 118 56 114 312 137 144 236 170 162 176 193 196 202 204 203
337 340 341 344 344 342 346 336 337 343 340 328 300 7 300 282 308 302 243 210 96 198 96 104 55 70 31 65 195 170 109 54 120 204 184 197 252 193 178 181 198 193 209 217 216
336 339 340 342 344 347 356 4 11 353 16 244 266 268 276 300 292 251 155 123 98 50 99 9 76 193 220 307 64 115 114 141 266 248 135 217 245 207 196 200 202 205 205 213 224
334 338 338 340 343 355 38 78 80 278 304 240 240 245 242 341 292 289 152 126 124 169 128 26 196 224 139 144 130 7 142 255 218 235 144 228 241 257 191 208 204 201 205 215 213
333 337 337 339 343 355 46 93 345 340 250 304 219 211 200 149 204 248 131 132 137 166 143 158 205 109 136 68 146 218 197 188 218 176 232 141 261 240 238 255 215 214 222 224 216
330 334 337 342 1 342 319 340 338 203 25 280 286 283 119 149 243 202 168 136 96 197 156 223 278 190 112 255 148 224 207 215 226 74 222 66 265 293 252 229 224 221 211 212 210
325 330 334 345 320 317 314 330 336 156 356 267 222 146 131 164 170 217 175 68 175 177 117 249 159 127 137 225 163 221 155 186 192 165 112 313 104 268 60 247 232 231 224 213 205
318 327 329 333 313 305 325 325 331 45 259 316 61 164 132 266 240 101 128 68 139 132 353 232 244 229 209 195 188 244 134 52 52 93 70 224 157 268 196 212 233 236 232 220 208
314 317 319 311 267 304 320 344 52 150 323 316 340 357 259 171 217 111 145 157 160 112 319 309 235 248 175 203 306 91 66 334 355 9 218 137 106 231 241 242 230 235 230 213 200
313 317 314 294 282 284 334 49 154 242 267 314 354 343 100 7 36 61 103 173 210 92 110 167 340 215 167 175 169 170 146 158 204 197 256 92 223 250 212 253 277 253 247 206 196
320 320 304 308 302 180 89 104 202 210 306 329 326 50 10 8 92 78 69 348 233 175 162 142 282 306 253 325 121 136 166 199 112 19 67 248 289 309 243 264 295 288 212 186 186
328 318 294 328 167 152 86 232 240 228 328 353 30 21 35 357 46 67 22 297 337 180 285 209 311 261 282 32 331 168 169 61 11 201 247 284 270 232 270 250 259 249 182 177 170
333 357 326 326 129 44 169 225 260 257 260 13 336 328 304 17 44 67 348 266 29 331 148 124 125 284 336 177 193 19 336 57 120 150 194 235 260 220 234 251 269 256 308 147 119
65 342 66 132 70 15 178 202 240 280 310 298 197 231 247 212 37 88 114 304 347 289 55 338 144 233 234 275 335 139 229 151 128 255 235 184 269 321 278 257 230 265 93 96 110
128 252 209 212 142 266 267 271 275 286 251 329 273 208 188 257 100 89 127 226 7 40 54 78 16 17 343 6 20 158 192 169 100 73 219 184 266 345 44 79 288 216 133 127 122
105 8 310 67 194 215 209 253 260 249 258 216 245 218 214 214 7 145 127 350 7 49 43 88 96 143 197 241 259 293 290 223 142 122 256 231 295 303 315 1 4 63 69 97 96
71 236 193 229 282 235 236 302 270 306 236 195 228 216 191 139 76 108 101 98 31 12 44 82 97 292 250 253 246 249 259 281 214 226 178 266 223 278 264 169 157 106 85 98 98
142 149 350 265 304 265 165 258 253 260 229 259 207 189 178 153 182 183 136 176 209 40 60 2 173 149 276 290 298 276 282 269 245 145 137 274 290 222 269 100 110 99 93 85 89
165 120 108 289 323 122 214 275 256 326 256 284 311 118 80 30 232 63 110 114 105 133 109 71 114 52 294 338 328 311 249 286 295 335 209 183 224 160 150 150 146 135 135 107 69